User: anonymous   Login
Location: Unspecified
(0.0000°N, 0.0000°E)
Time: 10:28:23
(UTC+02:00)
Language:

Palapa 6 Rocket - Orbit

View from above orbital plane
View from above orbital plane
View from above satellite
View from above satellite

Ground track
Ground track

The orbit data is extracted from the following two-line orbital elements,

1 20571U 90034B   14296.22328971  .00003505  00000-0  49337-3 0  5579
2 20571 022.7467 196.9745 0516836 316.4201 187.8854 14.09795963255143
Epoch (UTC): 23 October 2014 05:21:32
Eccentricity: 0.0516836
inclination: 22.7467°
perigee height: 486 km
apogee height: 1234 km
right ascension of ascending node: 196.9745°
argument of perigee: 316.4201°
revolutions per day: 14.09795963
mean anomaly at epoch: 187.8854°
orbit number at epoch: 25514

The dashed part of the orbit path shows where the satellite is in the earth's shadow,  

DLR